Home   Weather   Newport News   Past weeks

Flag for USA Past Weather in Newport News, Virginia, USA — Yesterday and Last 2 Weeks

Now
77 °F

Mostly cloudy.


Feels Like: 78 °F
Forecast: 75 / 85 °F
Wind: 9 mph from South

Location: Newport News / Williamsburg International Airport

Current Time: Jul 28, 2017 at 2:59:03 am

Latest Report: Jul 28, 2017 at 1:54 am


Visibility: 10 mi

Pressure: 29.86 "Hg

Humidity: 85%

Dew Point: 72 °F

Location of Newport NewsLocation

Past Weather in Newport News — Graph

°F

Newport News Temperature Yesterday

Maximum temperature yesterday: 89 °F (at 4:54 pm)
Minimum temperature yesterday: 71 °F (at 4:54 am)
Average temperature yesterday: 80 °F

High & Low Weather Summary for the Past Weeks

 TemperatureHumidityPressure
High97 °F (Jul 14, 2:54 pm)100% (Jul 15, 6:54 am)30.19 "Hg (Jul 15, 6:54 am)
Low66 °F (Jul 26, 2:54 am)41% (Jul 20, 1:54 pm)29.76 "Hg (Jul 23, 6:54 pm)
Average82 °F72%29.98 "Hg
* Reported Jul 13 12:54 am — Jul 28 12:54 am, Newport News. Weather by CustomWeather, © 2017

Note: Actual official high and low records may vary slightly from our data, if they occured in-between our weather recording intervals... More about our weather records

Advertising

Newport News Weather History for the Previous 24 Hours

Scroll right to see more
 ConditionsComfort  
Time TempWeatherWind HumidityBarometerVisibility
12:54 am
Fri, Jul 28
80 °FPassing clouds.17 mph76%29.87 "Hg10 mi
11:54 pm
Thu, Jul 27
81 °FPartly cloudy.13 mph74%29.87 "Hg10 mi
10:54 pm81 °FLight rain. Partly cloudy.10 mph77%29.88 "Hg10 mi
9:54 pm83 °FOvercast.7 mph70%29.88 "Hg10 mi
8:54 pm84 °FPartly cloudy.8 mph65%29.88 "Hg10 mi
7:54 pm85 °FCloudy.12 mph63%29.88 "Hg10 mi
6:54 pm85 °FPassing clouds.14 mph63%29.89 "Hg10 mi
5:54 pm86 °FSunny.16 mph61%29.89 "Hg10 mi
4:54 pm89 °FPassing clouds.16 mph53%29.90 "Hg10 mi
3:54 pm88 °FSunny.13 mph55%29.92 "Hg10 mi
2:54 pm88 °FPassing clouds.14 mph54%29.93 "Hg10 mi
1:54 pm88 °FSunny.15 mph54%29.95 "Hg10 mi
12:54 pm86 °FSunny.8 mph55%29.98 "Hg10 mi
11:54 am83 °FSunny.13 mph59%30.01 "Hg10 mi
10:54 am79 °FPartly sunny.8 mph65%30.04 "Hg10 mi
9:54 am78 °FBroken clouds.12 mph69%30.05 "Hg10 mi
8:54 am77 °FBroken clouds.10 mph71%30.06 "Hg10 mi
7:54 am76 °FBroken clouds.10 mph77%30.07 "Hg10 mi
6:54 am74 °FPartly sunny.6 mph79%30.06 "Hg10 mi
5:54 am73 °FPassing clouds.7 mph81%30.06 "Hg10 mi
4:54 am71 °FClear.5 mph84%30.06 "Hg10 mi
3:54 am72 °FPassing clouds.5 mph81%30.07 "Hg10 mi
2:54 am72 °FPassing clouds.5 mph81%30.08 "Hg10 mi
Weather by CustomWeather, © 2017

See weather overviewHow to use our weather pages